Time,TemperatureF,DewpointF,PressureIn,WindDirection,WindDirectionDegrees,WindSpeedMPH,WindSpeedGustMPH,Humidity,HourlyPrecipIn,Conditions,Clouds,dailyrainin,SoftwareType,DateUTC
2013-01-13 00:03:00,52.8,40.2,29.88,NNW,327,14.0,14.0,62,0.00,,OVC029,0.00,VWS V14.01,2013-01-13 06:03:00,
2013-01-13 00:08:00,52.5,39.9,29.88,North,355,10.0,23.0,62,0.00,,OVC029,0.00,VWS V14.01,2013-01-13 06:08:00,
2013-01-13 00:13:00,52.3,39.7,29.88,North,5,15.0,17.0,62,0.00,,OVC029,0.00,VWS V14.01,2013-01-13 06:13:00,
2013-01-13 00:18:00,52.2,40.0,29.90,NNW,344,17.0,18.0,63,0.00,,OVC029,0.00,VWS V14.01,2013-01-13 06:18:00,
2013-01-13 00:23:00,52.0,39.8,29.90,WNW,302,11.0,13.0,63,0.00,,OVC029,0.00,VWS V14.01,2013-01-13 06:23:00,
2013-01-13 00:28:00,51.9,39.3,29.90,North,355,9.0,23.0,62,0.00,,OVC029,0.00,VWS V14.01,2013-01-13 06:28:00,
2013-01-13 00:33:00,51.6,39.0,29.91,NNW,333,5.0,9.0,62,0.00,,OVC029,0.00,VWS V14.01,2013-01-13 06:33:00,
2013-01-13 00:38:00,51.6,39.0,29.91,North,355,12.0,20.0,62,0.00,,OVC029,0.00,VWS V14.01,2013-01-13 06:38:00,
2013-01-13 00:43:00,51.3,38.7,29.91,NNW,331,16.0,17.0,62,0.00,,OVC029,0.00,VWS V14.01,2013-01-13 06:43:00,
2013-01-13 00:48:00,51.1,38.5,29.91,North,5,17.0,21.0,62,0.00,,OVC029,0.00,VWS V14.01,2013-01-13 06:48:00,
2013-01-13 00:53:00,50.8,38.3,29.91,North,5,15.0,16.0,62,0.00,,OVC029,0.00,VWS V14.01,2013-01-13 06:53:00,
2013-01-13 00:58:00,50.8,38.3,29.91,NW,322,10.0,20.0,62,0.00,,OVC031,0.00,VWS V14.01,2013-01-13 06:58:00,
2013-01-13 01:04:00,50.7,38.2,29.91,North,355,11.0,14.0,62,0.00,,OVC031,0.00,VWS V14.01,2013-01-13 07:04:00,
2013-01-13 01:09:00,50.5,38.0,29.91,NNW,336,9.0,15.0,62,0.00,,OVC031,0.00,VWS V14.01,2013-01-13 07:09:00,
2013-01-13 01:14:00,50.4,37.9,29.91,NW,320,7.0,14.0,62,0.00,,OVC031,0.00,VWS V14.01,2013-01-13 07:14:00,
2013-01-13 01:19:00,50.4,37.9,29.93,NNW,337,14.0,14.0,62,0.00,,OVC031,0.00,VWS V14.01,2013-01-13 07:19:00,
2013-01-13 01:24:00,49.9,37.0,29.93,NNW,345,9.0,17.0,61,0.00,,OVC031,0.00,VWS V14.01,2013-01-13 07:24:00,
2013-01-13 01:29:00,49.8,36.9,29.93,NNW,332,16.0,17.0,61,0.00,,OVC031,0.00,VWS V14.01,2013-01-13 07:29:00,
2013-01-13 01:34:00,49.5,36.6,29.93,North,355,7.0,15.0,61,0.00,,OVC031,0.00,VWS V14.01,2013-01-13 07:34:00,
2013-01-13 01:39:00,49.4,36.5,29.93,NW,316,6.0,19.0,61,0.00,,OVC031,0.00,VWS V14.01,2013-01-13 07:39:00,
2013-01-13 01:44:00,49.2,35.9,29.93,NNE,33,15.0,21.0,60,0.00,,OVC031,0.00,VWS V14.01,2013-01-13 07:44:00,
2013-01-13 01:49:00,49.2,35.9,29.93,North,355,14.0,21.0,60,0.00,,OVC031,0.00,VWS V14.01,2013-01-13 07:49:00,
2013-01-13 01:54:00,49.1,35.8,29.93,NW,321,12.0,16.0,60,0.00,,OVC031,0.00,VWS V14.01,2013-01-13 07:54:00,
2013-01-13 01:59:00,48.8,35.1,29.93,North,355,14.0,23.0,59,0.00,,OVC033,0.00,VWS V14.01,2013-01-13 07:59:00,
2013-01-13 02:04:00,48.6,34.9,29.93,NW,315,12.0,20.0,59,0.00,,OVC033,0.00,VWS V14.01,2013-01-13 08:04:00,
2013-01-13 02:09:00,48.3,34.7,29.93,North,355,10.0,26.0,59,0.00,,OVC033,0.00,VWS V14.01,2013-01-13 08:09:00,
2013-01-13 02:14:00,48.2,34.6,29.93,NNW,335,7.0,17.0,59,0.00,,OVC033,0.00,VWS V14.01,2013-01-13 08:14:00,
2013-01-13 02:19:00,48.0,34.4,29.94,North,355,10.0,19.0,59,0.00,,OVC033,0.00,VWS V14.01,2013-01-13 08:19:00,
2013-01-13 02:24:00,47.9,34.3,29.94,NW,319,20.0,20.0,59,0.00,,OVC033,0.00,VWS V14.01,2013-01-13 08:24:00,
2013-01-13 02:29:00,47.7,34.5,29.94,NNW,342,12.0,21.0,60,0.00,,OVC033,0.00,VWS V14.01,2013-01-13 08:29:00,
2013-01-13 02:34:00,47.7,34.5,29.94,NNW,348,11.0,16.0,60,0.00,,OVC033,0.00,VWS V14.01,2013-01-13 08:34:00,
2013-01-13 02:39:00,47.6,34.4,29.94,NNW,329,10.0,21.0,60,0.00,,OVC033,0.00,VWS V14.01,2013-01-13 08:39:00,
2013-01-13 02:44:00,47.6,34.4,29.94,NNW,331,7.0,11.0,60,0.00,,OVC033,0.00,VWS V14.01,2013-01-13 08:44:00,
2013-01-13 02:49:00,47.6,34.8,29.95,NNW,330,10.0,17.0,61,0.00,,OVC033,0.00,VWS V14.01,2013-01-13 08:49:00,
2013-01-13 02:54:00,47.4,34.6,29.95,NNW,348,10.0,14.0,61,0.00,,OVC033,0.00,VWS V14.01,2013-01-13 08:54:00,
2013-01-13 02:59:00,47.3,34.5,29.95,NNW,327,14.0,19.0,61,0.00,,OVC037,0.00,VWS V14.01,2013-01-13 08:59:00,
2013-01-13 03:04:00,47.1,34.4,29.96,NNW,340,11.0,13.0,61,0.00,,OVC037,0.00,VWS V14.01,2013-01-13 09:04:00,
2013-01-13 03:09:00,47.0,34.3,29.96,NW,319,17.0,21.0,61,0.00,,OVC037,0.00,VWS V14.01,2013-01-13 09:09:00,
2013-01-13 03:14:00,46.8,34.1,29.96,North,355,11.0,17.0,61,0.00,,OVC037,0.00,VWS V14.01,2013-01-13 09:14:00,
2013-01-13 03:19:00,46.7,34.0,29.97,NNW,346,11.0,18.0,61,0.00,,OVC037,0.00,VWS V14.01,2013-01-13 09:19:00,
2013-01-13 03:24:00,46.4,34.1,29.97,NW,326,12.0,21.0,62,0.00,,OVC037,0.00,VWS V14.01,2013-01-13 09:24:00,
2013-01-13 03:29:00,46.1,34.2,29.97,NW,322,14.0,21.0,63,0.00,,OVC037,0.00,VWS V14.01,2013-01-13 09:29:00,
2013-01-13 03:34:00,46.1,34.2,29.97,North,355,14.0,20.0,63,0.00,,OVC037,0.00,VWS V14.01,2013-01-13 09:34:00,
2013-01-13 03:39:00,46.1,34.2,29.97,NW,311,16.0,21.0,63,0.00,,OVC037,0.00,VWS V14.01,2013-01-13 09:39:00,
2013-01-13 03:44:00,46.0,34.1,29.97,NNW,346,9.0,17.0,63,0.00,,OVC037,0.00,VWS V14.01,2013-01-13 09:44:00,
2013-01-13 03:49:00,46.0,34.1,29.97,NNW,337,12.0,19.0,63,0.00,,OVC037,0.00,VWS V14.01,2013-01-13 09:49:00,
2013-01-13 03:53:00,45.8,33.9,29.97,NNW,340,12.0,16.0,63,0.00,,OVC037,0.00,VWS V14.01,2013-01-13 09:53:00,
2013-01-13 03:58:00,45.7,34.2,29.97,NNW,345,15.0,19.0,64,0.00,,OVC043,0.00,VWS V14.01,2013-01-13 09:58:00,
2013-01-13 04:03:00,45.7,34.2,29.97,NW,322,11.0,13.0,64,0.00,,OVC043,0.00,VWS V14.01,2013-01-13 10:03:00,
2013-01-13 04:08:00,45.7,34.2,29.97,NNW,342,13.0,17.0,64,0.00,,OVC043,0.00,VWS V14.01,2013-01-13 10:08:00,
2013-01-13 04:13:00,45.7,33.8,29.97,WNW,286,10.0,14.0,63,0.00,,OVC043,0.00,VWS V14.01,2013-01-13 10:13:00,
2013-01-13 04:18:00,45.5,33.2,29.98,NNW,340,18.0,21.0,62,0.00,,OVC043,0.00,VWS V14.01,2013-01-13 10:18:00,
2013-01-13 04:23:00,45.7,33.4,29.98,North,9,16.0,16.0,62,0.00,,OVC043,0.00,VWS V14.01,2013-01-13 10:23:00,
2013-01-13 04:28:00,45.7,33.8,29.98,North,9,9.0,16.0,63,0.00,,OVC043,0.00,VWS V14.01,2013-01-13 10:28:00,
2013-01-13 04:33:00,45.4,34.0,29.99,North,5,10.0,10.0,64,0.00,,OVC043,0.00,VWS V14.01,2013-01-13 10:33:00,
2013-01-13 04:38:00,45.2,33.8,29.99,NNW,344,10.0,18.0,64,0.00,,OVC043,0.00,VWS V14.01,2013-01-13 10:38:00,
2013-01-13 04:43:00,45.4,33.6,29.99,NW,321,15.0,19.0,63,0.00,,OVC043,0.00,VWS V14.01,2013-01-13 10:43:00,
2013-01-13 04:48:00,45.2,33.4,29.99,North,355,15.0,20.0,63,0.00,,OVC043,0.00,VWS V14.01,2013-01-13 10:48:00,
2013-01-13 04:53:00,45.4,33.6,29.99,NW,319,11.0,14.0,63,0.00,,OVC043,0.00,VWS V14.01,2013-01-13 10:53:00,
2013-01-13 04:58:00,45.4,33.6,29.99,NNW,340,7.0,18.0,63,0.00,,OVC049,0.00,VWS V14.01,2013-01-13 10:58:00,
2013-01-13 05:03:00,45.4,33.2,29.99,North,5,13.0,14.0,62,0.00,,OVC049,0.00,VWS V14.01,2013-01-13 11:03:00,
2013-01-13 05:08:00,45.4,33.2,29.99,NNW,348,12.0,19.0,62,0.00,,OVC049,0.00,VWS V14.01,2013-01-13 11:08:00,
2013-01-13 05:13:00,45.4,33.2,29.99,NNW,342,13.0,14.0,62,0.00,,OVC049,0.00,VWS V14.01,2013-01-13 11:13:00,
2013-01-13 05:18:00,45.2,33.0,29.99,NE,51,12.0,19.0,62,0.00,,OVC049,0.00,VWS V14.01,2013-01-13 11:18:00,
2013-01-13 05:23:00,45.1,32.9,29.99,North,355,12.0,15.0,62,0.00,,OVC049,0.00,VWS V14.01,2013-01-13 11:23:00,
2013-01-13 05:28:00,44.9,32.7,29.99,NW,318,6.0,20.0,62,0.00,,OVC049,0.00,VWS V14.01,2013-01-13 11:28:00,
2013-01-13 05:33:00,44.9,33.1,30.00,NNW,328,14.0,14.0,63,0.00,,OVC049,0.00,VWS V14.01,2013-01-13 11:33:00,
2013-01-13 05:38:00,44.9,32.7,30.00,NNW,336,6.0,16.0,62,0.00,,OVC049,0.00,VWS V14.01,2013-01-13 11:38:00,
2013-01-13 05:43:00,44.9,32.7,30.00,North,5,10.0,13.0,62,0.00,,OVC049,0.00,VWS V14.01,2013-01-13 11:43:00,
2013-01-13 05:48:00,44.9,32.7,30.01,NNW,348,3.0,16.0,62,0.00,,OVC049,0.00,VWS V14.01,2013-01-13 11:48:00,
2013-01-13 05:53:00,44.8,32.2,30.01,NNW,335,7.0,17.0,61,0.00,,OVC049,0.00,VWS V14.01,2013-01-13 11:53:00,
2013-01-13 05:58:00,44.8,32.2,30.01,NNW,344,15.0,21.0,61,0.00,,OVC049,0.00,VWS V14.01,2013-01-13 11:58:00,
2013-01-13 06:03:00,44.8,32.6,30.02,NW,319,7.0,10.0,62,0.00,,OVC049,0.00,VWS V14.01,2013-01-13 12:03:00,
2013-01-13 06:08:00,44.8,32.2,30.02,NNW,339,10.0,16.0,61,0.00,,OVC049,0.00,VWS V14.01,2013-01-13 12:08:00,
2013-01-13 06:13:00,44.8,32.2,30.02,NNW,346,10.0,18.0,61,0.00,,OVC049,0.00,VWS V14.01,2013-01-13 12:13:00,
2013-01-13 06:18:00,44.8,32.2,30.02,North,360,12.0,19.0,61,0.00,,OVC049,0.00,VWS V14.01,2013-01-13 12:18:00,
2013-01-13 06:23:00,44.8,32.2,30.02,NNW,341,13.0,16.0,61,0.00,,OVC049,0.00,VWS V14.01,2013-01-13 12:23:00,
2013-01-13 06:28:00,44.6,32.0,30.02,NNW,339,11.0,21.0,61,0.00,,OVC049,0.00,VWS V14.01,2013-01-13 12:28:00,
2013-01-13 06:33:00,44.8,32.2,30.04,WNW,294,10.0,11.0,61,0.00,,OVC049,0.00,VWS V14.01,2013-01-13 12:33:00,
2013-01-13 06:38:00,44.6,32.0,30.04,North,355,14.0,14.0,61,0.00,,OVC049,0.00,VWS V14.01,2013-01-13 12:38:00,
2013-01-13 06:43:00,44.8,32.6,30.04,NNW,337,2.0,5.0,62,0.00,,OVC049,0.00,VWS V14.01,2013-01-13 12:43:00,
2013-01-13 06:48:00,44.9,32.7,30.05,WNW,300,4.0,10.0,62,0.00,,OVC049,0.00,VWS V14.01,2013-01-13 12:48:00,
2013-01-13 06:53:00,44.8,32.6,30.05,NNW,342,9.0,10.0,62,0.00,,OVC049,0.00,VWS V14.01,2013-01-13 12:53:00,
2013-01-13 06:58:00,44.8,33.0,30.05,NNW,340,7.0,12.0,63,0.00,,OVC055,0.00,VWS V14.01,2013-01-13 12:58:00,
2013-01-13 07:03:00,44.9,32.7,30.06,NNW,342,14.0,19.0,62,0.00,,OVC055,0.00,VWS V14.01,2013-01-13 13:03:00,
2013-01-13 07:08:00,44.6,32.0,30.06,NNW,345,15.0,19.0,61,0.00,,OVC055,0.00,VWS V14.01,2013-01-13 13:08:00,
2013-01-13 07:13:00,44.5,31.9,30.06,NW,325,16.0,16.0,61,0.00,,OVC055,0.00,VWS V14.01,2013-01-13 13:13:00,
2013-01-13 07:18:00,44.3,31.7,30.07,NW,313,10.0,16.0,61,0.00,,OVC055,0.00,VWS V14.01,2013-01-13 13:18:00,
2013-01-13 07:23:00,44.3,31.7,30.07,North,355,10.0,10.0,61,0.00,,OVC055,0.00,VWS V14.01,2013-01-13 13:23:00,
2013-01-13 07:28:00,44.2,31.6,30.07,North,355,7.0,16.0,61,0.00,,OVC055,0.00,VWS V14.01,2013-01-13 13:28:00,
2013-01-13 07:33:00,44.3,31.7,30.08,North,355,8.0,14.0,61,0.00,,OVC055,0.00,VWS V14.01,2013-01-13 13:33:00,
2013-01-13 07:38:00,44.2,30.8,30.08,NNW,348,7.0,18.0,59,0.00,,OVC055,0.00,VWS V14.01,2013-01-13 13:38:00,
2013-01-13 07:43:00,44.2,31.2,30.08,North,5,16.0,16.0,60,0.00,,OVC055,0.00,VWS V14.01,2013-01-13 13:43:00,
2013-01-13 07:48:00,44.2,30.4,30.09,NNW,346,11.0,16.0,58,0.00,,OVC055,0.00,VWS V14.01,2013-01-13 13:48:00,
2013-01-13 07:53:00,44.2,31.2,30.09,North,5,4.0,4.0,60,0.00,,OVC055,0.00,VWS V14.01,2013-01-13 13:53:00,
2013-01-13 07:58:00,44.2,31.2,30.09,NNW,331,6.0,14.0,60,0.00,,OVC055,0.00,VWS V14.01,2013-01-13 13:58:00,
2013-01-13 08:03:00,44.1,31.1,30.10,NNW,344,7.0,13.0,60,0.00,,OVC055,0.00,VWS V14.01,2013-01-13 14:03:00,
2013-01-13 08:08:00,44.2,31.2,30.10,NNW,335,12.0,18.0,60,0.00,,OVC055,0.00,VWS V14.01,2013-01-13 14:08:00,
2013-01-13 08:13:00,44.1,31.1,30.10,NW,319,7.0,13.0,60,0.00,,OVC055,0.00,VWS V14.01,2013-01-13 14:13:00,
2013-01-13 08:18:00,44.1,31.1,30.12,NNW,346,11.0,17.0,60,0.00,,OVC055,0.00,VWS V14.01,2013-01-13 14:18:00,
2013-01-13 08:23:00,44.1,31.1,30.12,North,355,10.0,13.0,60,0.00,,OVC055,0.00,VWS V14.01,2013-01-13 14:23:00,
2013-01-13 08:28:00,43.9,30.5,30.12,NNW,328,6.0,17.0,59,0.00,,OVC055,0.00,VWS V14.01,2013-01-13 14:28:00,
2013-01-13 08:33:00,43.8,30.8,30.12,NNW,343,8.0,10.0,60,0.00,,OVC055,0.00,VWS V14.01,2013-01-13 14:33:00,
2013-01-13 08:38:00,43.8,30.4,30.12,North,355,11.0,16.0,59,0.00,,OVC055,0.00,VWS V14.01,2013-01-13 14:38:00,
2013-01-13 08:43:00,43.8,30.0,30.12,NW,314,11.0,13.0,58,0.00,,OVC055,0.00,VWS V14.01,2013-01-13 14:43:00,
2013-01-13 08:48:00,43.6,30.2,30.13,North,360,14.0,21.0,59,0.00,,OVC055,0.00,VWS V14.01,2013-01-13 14:48:00,
2013-01-13 08:53:00,43.5,30.1,30.13,North,355,16.0,16.0,59,0.00,,OVC055,0.00,VWS V14.01,2013-01-13 14:53:00,
2013-01-13 08:58:00,43.5,29.7,30.13,North,360,10.0,19.0,58,0.00,,OVC060,0.00,VWS V14.01,2013-01-13 14:58:00,
2013-01-13 09:03:00,43.8,30.0,30.14,North,5,12.0,14.0,58,0.00,,OVC060,0.00,VWS V14.01,2013-01-13 15:03:00,
2013-01-13 09:08:00,43.9,30.1,30.14,NNW,327,13.0,18.0,58,0.00,,OVC060,0.00,VWS V14.01,2013-01-13 15:08:00,
2013-01-13 09:13:00,44.1,30.7,30.14,NW,317,16.0,22.0,59,0.00,,OVC060,0.00,VWS V14.01,2013-01-13 15:13:00,
2013-01-13 09:18:00,44.1,29.9,30.15,NNW,348,9.0,22.0,57,0.00,,OVC060,0.00,VWS V14.01,2013-01-13 15:18:00,
2013-01-13 09:23:00,44.2,30.0,30.15,NW,313,12.0,19.0,57,0.00,,OVC060,0.00,VWS V14.01,2013-01-13 15:23:00,
2013-01-13 09:28:00,43.9,29.7,30.15,NW,325,11.0,19.0,57,0.00,,OVC060,0.00,VWS V14.01,2013-01-13 15:28:00,
2013-01-13 09:33:00,43.8,29.6,30.15,NNW,333,10.0,16.0,57,0.00,,OVC060,0.00,VWS V14.01,2013-01-13 15:33:00,
2013-01-13 09:38:00,44.1,29.9,30.15,NW,319,14.0,16.0,57,0.00,,OVC060,0.00,VWS V14.01,2013-01-13 15:38:00,
2013-01-13 09:43:00,44.1,29.4,30.15,North,355,12.0,16.0,56,0.00,,OVC060,0.00,VWS V14.01,2013-01-13 15:43:00,
2013-01-13 09:48:00,44.2,29.5,30.16,North,355,12.0,17.0,56,0.00,,OVC060,0.00,VWS V14.01,2013-01-13 15:48:00,
2013-01-13 09:53:00,44.5,29.4,30.16,North,349,5.0,11.0,55,0.00,,OVC060,0.00,VWS V14.01,2013-01-13 15:53:00,
2013-01-13 09:58:00,44.3,29.2,30.16,WNW,286,21.0,21.0,55,0.00,,CLR,0.00,VWS V14.01,2013-01-13 15:58:00,
2013-01-13 10:03:00,44.3,29.2,30.17,NNW,333,18.0,20.0,55,0.00,,CLR,0.00,VWS V14.01,2013-01-13 16:03:00,
2013-01-13 10:08:00,44.5,29.4,30.17,NW,313,10.0,20.0,55,0.00,,CLR,0.00,VWS V14.01,2013-01-13 16:08:00,
2013-01-13 10:13:00,45.2,30.0,30.17,NW,309,10.0,10.0,55,0.00,,CLR,0.00,VWS V14.01,2013-01-13 16:13:00,
2013-01-13 10:18:00,45.2,29.1,30.17,NW,312,8.0,18.0,53,0.00,,CLR,0.00,VWS V14.01,2013-01-13 16:18:00,
2013-01-13 10:23:00,45.2,29.1,30.17,NW,317,8.0,13.0,53,0.00,,CLR,0.00,VWS V14.01,2013-01-13 16:23:00,
2013-01-13 10:28:00,45.8,29.7,30.17,NNW,342,16.0,22.0,53,0.00,,CLR,0.00,VWS V14.01,2013-01-13 16:28:00,
2013-01-13 10:33:00,45.7,29.6,30.16,NNW,338,14.0,15.0,53,0.00,,CLR,0.00,VWS V14.01,2013-01-13 16:33:00,
2013-01-13 10:38:00,46.1,29.9,30.16,NNW,336,11.0,18.0,53,0.00,,CLR,0.00,VWS V14.01,2013-01-13 16:38:00,
2013-01-13 10:43:00,46.4,29.8,30.16,WNW,293,10.0,18.0,52,0.00,,CLR,0.00,VWS V14.01,2013-01-13 16:43:00,
2013-01-13 10:48:00,46.5,29.8,30.17,NNW,338,10.0,18.0,52,0.00,,CLR,0.00,VWS V14.01,2013-01-13 16:48:00,
2013-01-13 10:53:00,46.8,30.6,30.17,North,355,14.0,16.0,53,0.00,,CLR,0.00,VWS V14.01,2013-01-13 16:53:00,
2013-01-13 10:58:00,47.1,30.4,30.17,NW,319,13.0,17.0,52,0.00,,CLR,0.00,VWS V14.01,2013-01-13 16:58:00,
2013-01-13 11:03:00,47.0,30.3,30.16,North,355,12.0,14.0,52,0.00,,CLR,0.00,VWS V14.01,2013-01-13 17:03:00,
2013-01-13 11:08:00,47.4,30.7,30.16,NW,315,9.0,17.0,52,0.00,,CLR,0.00,VWS V14.01,2013-01-13 17:08:00,
2013-01-13 11:13:00,47.9,30.2,30.16,North,355,10.0,10.0,50,0.00,,CLR,0.00,VWS V14.01,2013-01-13 17:13:00,
2013-01-13 11:18:00,47.7,30.5,30.16,NW,305,7.0,17.0,51,0.00,,CLR,0.00,VWS V14.01,2013-01-13 17:18:00,
2013-01-13 11:23:00,48.2,30.5,30.16,NNW,344,17.0,19.0,50,0.00,,CLR,0.00,VWS V14.01,2013-01-13 17:23:00,
2013-01-13 11:28:00,48.2,30.5,30.16,NW,311,12.0,20.0,50,0.00,,CLR,0.00,VWS V14.01,2013-01-13 17:28:00,
2013-01-13 11:33:00,48.3,30.5,30.15,NNW,346,10.0,13.0,50,0.00,,CLR,0.00,VWS V14.01,2013-01-13 17:33:00,
2013-01-13 11:38:00,48.8,31.0,30.15,NW,316,9.0,18.0,50,0.00,,CLR,0.00,VWS V14.01,2013-01-13 17:38:00,
2013-01-13 11:43:00,49.1,30.8,30.15,NNW,333,17.0,17.0,49,0.00,,CLR,0.00,VWS V14.01,2013-01-13 17:43:00,
2013-01-13 11:48:00,48.9,30.6,30.14,NW,321,17.0,21.0,49,0.00,,CLR,0.00,VWS V14.01,2013-01-13 17:48:00,
2013-01-13 11:53:00,49.1,30.8,30.14,NW,320,9.0,13.0,49,0.00,,CLR,0.00,VWS V14.01,2013-01-13 17:53:00,
2013-01-13 11:58:00,48.9,30.6,30.14,NW,308,9.0,19.0,49,0.00,,CLR,0.00,VWS V14.01,2013-01-13 17:58:00,
2013-01-13 12:03:00,49.2,30.4,30.14,North,11,8.0,10.0,48,0.00,,CLR,0.00,VWS V14.01,2013-01-13 18:03:00,
2013-01-13 12:08:00,49.5,30.6,30.14,NNW,342,5.0,21.0,48,0.00,,CLR,0.00,VWS V14.01,2013-01-13 18:08:00,
2013-01-13 12:13:00,49.6,30.2,30.14,North,5,4.0,14.0,47,0.00,,CLR,0.00,VWS V14.01,2013-01-13 18:13:00,
2013-01-13 12:18:00,49.6,30.7,30.13,WNW,292,14.0,18.0,48,0.00,,CLR,0.00,VWS V14.01,2013-01-13 18:18:00,
2013-01-13 12:23:00,49.5,30.6,30.13,NW,323,6.0,7.0,48,0.00,,CLR,0.00,VWS V14.01,2013-01-13 18:23:00,
2013-01-13 12:28:00,49.8,30.9,30.13,NW,319,11.0,17.0,48,0.00,,CLR,0.00,VWS V14.01,2013-01-13 18:28:00,
2013-01-13 12:33:00,49.8,30.9,30.13,WNW,297,9.0,9.0,48,0.00,,CLR,0.00,VWS V14.01,2013-01-13 18:33:00,
2013-01-13 12:38:00,50.4,31.5,30.13,North,10,6.0,15.0,48,0.00,,CLR,0.00,VWS V14.01,2013-01-13 18:38:00,
2013-01-13 12:43:00,50.5,31.0,30.13,NNW,342,14.0,14.0,47,0.00,,CLR,0.00,VWS V14.01,2013-01-13 18:43:00,
2013-01-13 12:48:00,50.5,31.0,30.13,NNW,347,4.0,18.0,47,0.00,,CLR,0.00,VWS V14.01,2013-01-13 18:48:00,
2013-01-13 12:53:00,51.0,31.0,30.13,NNW,343,12.0,12.0,46,0.00,,CLR,0.00,VWS V14.01,2013-01-13 18:53:00,
2013-01-13 12:58:00,51.3,31.2,30.13,NW,323,11.0,18.0,46,0.00,,CLR,0.00,VWS V14.01,2013-01-13 18:58:00,
2013-01-13 13:03:00,51.3,30.7,30.12,NNE,25,11.0,11.0,45,0.00,,CLR,0.00,VWS V14.01,2013-01-13 19:03:00,
2013-01-13 13:08:00,51.7,31.1,30.12,NNW,342,8.0,17.0,45,0.00,,CLR,0.00,VWS V14.01,2013-01-13 19:08:00,
2013-01-13 13:13:00,52.0,31.3,30.12,NNW,342,8.0,8.0,45,0.00,,CLR,0.00,VWS V14.01,2013-01-13 19:13:00,
2013-01-13 13:18:00,52.5,31.8,30.12,NNE,18,6.0,14.0,45,0.00,,CLR,0.00,VWS V14.01,2013-01-13 19:18:00,
2013-01-13 13:23:00,52.6,30.8,30.12,North,355,11.0,15.0,43,0.00,,CLR,0.00,VWS V14.01,2013-01-13 19:23:00,
2013-01-13 13:28:00,52.5,31.2,30.12,NNW,348,9.0,15.0,44,0.00,,CLR,0.00,VWS V14.01,2013-01-13 19:28:00,
2013-01-13 13:33:00,52.9,30.5,30.11,NW,304,7.0,11.0,42,0.00,,CLR,0.00,VWS V14.01,2013-01-13 19:33:00,
2013-01-13 13:38:00,53.2,30.1,30.11,NNW,333,11.0,16.0,41,0.00,,CLR,0.00,VWS V14.01,2013-01-13 19:38:00,
2013-01-13 13:43:00,53.2,30.7,30.11,WNW,283,6.0,9.0,42,0.00,,CLR,0.00,VWS V14.01,2013-01-13 19:43:00,
2013-01-13 13:48:00,53.2,30.7,30.12,WNW,296,12.0,13.0,42,0.00,,CLR,0.00,VWS V14.01,2013-01-13 19:48:00,
2013-01-13 13:53:00,53.2,30.7,30.12,NNE,14,7.0,7.0,42,0.00,,CLR,0.00,VWS V14.01,2013-01-13 19:53:00,
2013-01-13 13:58:00,53.9,31.4,30.12,North,355,5.0,12.0,42,0.00,,CLR,0.00,VWS V14.01,2013-01-13 19:58:00,
2013-01-13 14:03:00,53.9,30.1,30.11,NNW,342,6.0,10.0,40,0.00,,CLR,0.00,VWS V14.01,2013-01-13 20:03:00,
2013-01-13 14:08:00,53.5,29.8,30.11,NNW,339,15.0,17.0,40,0.00,,CLR,0.00,VWS V14.01,2013-01-13 20:08:00,
2013-01-13 14:13:00,53.2,30.7,30.11,NNW,331,9.0,9.0,42,0.00,,CLR,0.00,VWS V14.01,2013-01-13 20:13:00,
2013-01-13 14:18:00,53.6,30.5,30.11,North,5,5.0,15.0,41,0.00,,CLR,0.00,VWS V14.01,2013-01-13 20:18:00,
2013-01-13 14:23:00,54.1,31.5,30.11,North,355,11.0,13.0,42,0.00,,CLR,0.00,VWS V14.01,2013-01-13 20:23:00,
2013-01-13 14:28:00,53.9,30.8,30.11,NW,324,4.0,19.0,41,0.00,,CLR,0.00,VWS V14.01,2013-01-13 20:28:00,
2013-01-13 14:33:00,54.5,30.7,30.11,NNE,17,11.0,14.0,40,0.00,,CLR,0.00,VWS V14.01,2013-01-13 20:33:00,
2013-01-13 14:38:00,54.2,30.4,30.11,NE,39,8.0,16.0,40,0.00,,CLR,0.00,VWS V14.01,2013-01-13 20:38:00,
2013-01-13 14:43:00,54.1,30.3,30.11,North,5,13.0,16.0,40,0.00,,CLR,0.00,VWS V14.01,2013-01-13 20:43:00,
2013-01-13 14:48:00,54.1,30.3,30.10,North,355,10.0,17.0,40,0.00,,CLR,0.00,VWS V14.01,2013-01-13 20:48:00,
2013-01-13 14:53:00,54.7,30.9,30.10,North,349,10.0,12.0,40,0.00,,CLR,0.00,VWS V14.01,2013-01-13 20:53:00,
2013-01-13 14:58:00,54.2,30.4,30.10,NNW,345,6.0,17.0,40,0.00,,CLR,0.00,VWS V14.01,2013-01-13 20:58:00,
2013-01-13 15:03:00,54.1,31.5,30.11,NE,36,9.0,12.0,42,0.00,,CLR,0.00,VWS V14.01,2013-01-13 21:03:00,
2013-01-13 15:08:00,54.7,31.5,30.11,NE,34,7.0,15.0,41,0.00,,CLR,0.00,VWS V14.01,2013-01-13 21:08:00,
2013-01-13 15:13:00,54.4,31.2,30.11,NNW,331,11.0,15.0,41,0.00,,CLR,0.00,VWS V14.01,2013-01-13 21:13:00,
2013-01-13 15:18:00,54.5,31.9,30.11,NNE,25,10.0,15.0,42,0.00,,CLR,0.00,VWS V14.01,2013-01-13 21:18:00,
2013-01-13 15:23:00,54.5,31.3,30.11,NNW,338,6.0,6.0,41,0.00,,CLR,0.00,VWS V14.01,2013-01-13 21:23:00,
2013-01-13 15:28:00,54.4,31.2,30.11,NNE,32,13.0,14.0,41,0.00,,CLR,0.00,VWS V14.01,2013-01-13 21:28:00,
2013-01-13 15:33:00,54.1,30.9,30.12,NNE,14,5.0,7.0,41,0.00,,CLR,0.00,VWS V14.01,2013-01-13 21:33:00,
2013-01-13 15:38:00,53.9,30.8,30.12,NNE,30,11.0,16.0,41,0.00,,CLR,0.00,VWS V14.01,2013-01-13 21:38:00,
2013-01-13 15:43:00,54.4,31.2,30.12,NNW,327,7.0,12.0,41,0.00,,CLR,0.00,VWS V14.01,2013-01-13 21:43:00,
2013-01-13 15:48:00,54.1,30.9,30.12,NNW,328,11.0,18.0,41,0.00,,CLR,0.00,VWS V14.01,2013-01-13 21:48:00,
2013-01-13 15:53:00,54.2,31.6,30.12,NNW,346,13.0,13.0,42,0.00,,CLR,0.00,VWS V14.01,2013-01-13 21:53:00,
2013-01-13 15:58:00,53.9,30.8,30.12,NNW,344,5.0,17.0,41,0.00,,CLR,0.00,VWS V14.01,2013-01-13 21:58:00,
2013-01-13 16:03:00,53.9,31.9,30.12,NNW,334,7.0,7.0,43,0.00,,CLR,0.00,VWS V14.01,2013-01-13 22:03:00,
2013-01-13 16:08:00,53.6,31.1,30.12,NNW,336,3.0,19.0,42,0.00,,CLR,0.00,VWS V14.01,2013-01-13 22:08:00,
2013-01-13 16:13:00,53.9,31.4,30.12,NNW,327,7.0,19.0,42,0.00,,CLR,0.00,VWS V14.01,2013-01-13 22:13:00,
2013-01-13 16:18:00,53.6,31.1,30.13,North,355,6.0,13.0,42,0.00,,CLR,0.00,VWS V14.01,2013-01-13 22:18:00,
2013-01-13 16:23:00,53.9,31.4,30.13,NW,326,4.0,4.0,42,0.00,,CLR,0.00,VWS V14.01,2013-01-13 22:23:00,
2013-01-13 16:28:00,53.9,31.4,30.13,NNW,331,5.0,16.0,42,0.00,,CLR,0.00,VWS V14.01,2013-01-13 22:28:00,
2013-01-13 16:33:00,54.1,31.5,30.13,NNE,13,5.0,10.0,42,0.00,,CLR,0.00,VWS V14.01,2013-01-13 22:33:00,
2013-01-13 16:38:00,53.8,30.7,30.13,North,5,6.0,18.0,41,0.00,,CLR,0.00,VWS V14.01,2013-01-13 22:38:00,
2013-01-13 16:43:00,53.6,31.1,30.13,NNE,13,11.0,18.0,42,0.00,,CLR,0.00,VWS V14.01,2013-01-13 22:43:00,
2013-01-13 16:48:00,53.3,31.4,30.14,North,349,6.0,15.0,43,0.00,,CLR,0.00,VWS V14.01,2013-01-13 22:48:00,
2013-01-13 16:53:00,53.1,30.6,30.14,North,360,11.0,15.0,42,0.00,,CLR,0.00,VWS V14.01,2013-01-13 22:53:00,
2013-01-13 16:58:00,53.1,31.2,30.14,NNW,332,5.0,14.0,43,0.00,,CLR,0.00,VWS V14.01,2013-01-13 22:58:00,
2013-01-13 17:03:00,52.8,31.5,30.15,North,5,5.0,18.0,44,0.00,,CLR,0.00,VWS V14.01,2013-01-13 23:03:00,
2013-01-13 17:08:00,52.6,31.3,30.15,ENE,62,6.0,11.0,44,0.00,,CLR,0.00,VWS V14.01,2013-01-13 23:08:00,
2013-01-13 17:13:00,52.5,31.2,30.15,NNE,32,3.0,12.0,44,0.00,,CLR,0.00,VWS V14.01,2013-01-13 23:13:00,
2013-01-13 17:18:00,52.3,31.0,30.15,NNW,344,6.0,12.0,44,0.00,,CLR,0.00,VWS V14.01,2013-01-13 23:18:00,
2013-01-13 17:23:00,52.2,31.5,30.15,NNW,348,5.0,12.0,45,0.00,,CLR,0.00,VWS V14.01,2013-01-13 23:23:00,
2013-01-13 17:28:00,52.0,31.3,30.15,NNW,341,8.0,10.0,45,0.00,,CLR,0.00,VWS V14.01,2013-01-13 23:28:00,
2013-01-13 17:33:00,51.7,31.1,30.15,NNE,19,4.0,11.0,45,0.00,,CLR,0.00,VWS V14.01,2013-01-13 23:33:00,
2013-01-13 17:38:00,51.4,31.3,30.15,NNW,328,7.0,11.0,46,0.00,,CLR,0.00,VWS V14.01,2013-01-13 23:38:00,
2013-01-13 17:43:00,51.1,31.1,30.15,NE,51,4.0,13.0,46,0.00,,CLR,0.00,VWS V14.01,2013-01-13 23:43:00,
2013-01-13 17:48:00,51.0,31.5,30.15,North,9,7.0,9.0,47,0.00,,CLR,0.00,VWS V14.01,2013-01-13 23:48:00,
2013-01-13 17:53:00,50.7,31.2,30.15,North,5,3.0,9.0,47,0.00,,CLR,0.00,VWS V14.01,2013-01-13 23:53:00,
2013-01-13 17:58:00,50.5,31.0,30.15,North,360,7.0,9.0,47,0.00,,CLR,0.00,VWS V14.01,2013-01-13 23:58:00,
2013-01-13 18:03:00,50.4,31.5,30.15,NE,45,6.0,9.0,48,0.00,,CLR,0.00,VWS V14.01,2013-01-14 00:03:00,
2013-01-13 18:08:00,50.1,31.2,30.15,NNE,32,9.0,10.0,48,0.00,,CLR,0.00,VWS V14.01,2013-01-14 00:08:00,
2013-01-13 18:13:00,49.9,31.0,30.15,NNE,20,7.0,10.0,48,0.00,,CLR,0.00,VWS V14.01,2013-01-14 00:13:00,
2013-01-13 18:18:00,49.6,31.2,30.16,NNE,18,6.0,10.0,49,0.00,,CLR,0.00,VWS V14.01,2013-01-14 00:18:00,
2013-01-13 18:23:00,49.5,31.1,30.16,North,355,6.0,11.0,49,0.00,,CLR,0.00,VWS V14.01,2013-01-14 00:23:00,
2013-01-13 18:28:00,49.4,30.5,30.16,North,355,5.0,13.0,48,0.00,,CLR,0.00,VWS V14.01,2013-01-14 00:28:00,
2013-01-13 18:33:00,49.2,30.9,30.16,NNE,12,6.0,13.0,49,0.00,,CLR,0.00,VWS V14.01,2013-01-14 00:33:00,
2013-01-13 18:38:00,48.9,30.6,30.16,NNW,331,7.0,10.0,49,0.00,,CLR,0.00,VWS V14.01,2013-01-14 00:38:00,
2013-01-13 18:43:00,48.8,31.0,30.16,NNW,333,8.0,12.0,50,0.00,,CLR,0.00,VWS V14.01,2013-01-14 00:43:00,
2013-01-13 18:48:00,48.6,31.3,30.16,NNW,333,4.0,11.0,51,0.00,,CLR,0.00,VWS V14.01,2013-01-14 00:48:00,
2013-01-13 18:53:00,48.3,31.5,30.16,North,5,9.0,12.0,52,0.00,,CLR,0.00,VWS V14.01,2013-01-14 00:53:00,
2013-01-13 18:58:00,48.2,31.9,30.16,NNW,343,9.0,9.0,53,0.00,,CLR,0.00,VWS V14.01,2013-01-14 00:58:00,
2013-01-13 19:03:00,48.0,31.7,30.16,NNW,333,8.0,12.0,53,0.00,,CLR,0.00,VWS V14.01,2013-01-14 01:03:00,
2013-01-13 19:08:00,47.9,31.6,30.16,North,355,4.0,11.0,53,0.00,,CLR,0.00,VWS V14.01,2013-01-14 01:08:00,
2013-01-13 19:13:00,47.6,31.8,30.16,NE,36,6.0,11.0,54,0.00,,CLR,0.00,VWS V14.01,2013-01-14 01:13:00,
2013-01-13 19:18:00,47.4,31.6,30.17,North,355,3.0,12.0,54,0.00,,CLR,0.00,VWS V14.01,2013-01-14 01:18:00,
2013-01-13 19:23:00,47.3,31.0,30.17,NNW,344,8.0,16.0,53,0.00,,CLR,0.00,VWS V14.01,2013-01-14 01:23:00,
2013-01-13 19:28:00,47.0,30.8,30.17,North,5,12.0,14.0,53,0.00,,CLR,0.00,VWS V14.01,2013-01-14 01:28:00,
2013-01-13 19:32:00,46.7,30.5,30.17,NNE,28,10.0,16.0,53,0.00,,CLR,0.00,VWS V14.01,2013-01-14 01:32:00,
2013-01-13 19:37:00,46.5,30.3,30.17,North,360,6.0,11.0,53,0.00,,CLR,0.00,VWS V14.01,2013-01-14 01:37:00,
2013-01-13 19:42:00,46.4,30.2,30.17,North,355,8.0,13.0,53,0.00,,CLR,0.00,VWS V14.01,2013-01-14 01:42:00,
2013-01-13 19:47:00,46.1,29.9,30.17,NW,319,11.0,12.0,53,0.00,,CLR,0.00,VWS V14.01,2013-01-14 01:47:00,
2013-01-13 19:52:00,46.1,29.9,30.17,NNE,17,5.0,12.0,53,0.00,,CLR,0.00,VWS V14.01,2013-01-14 01:52:00,
2013-01-13 19:58:00,46.0,29.4,30.17,North,355,7.0,15.0,52,0.00,,CLR,0.00,VWS V14.01,2013-01-14 01:58:00,
2013-01-13 20:02:00,45.8,29.2,30.17,NNW,338,11.0,15.0,52,0.00,,CLR,0.00,VWS V14.01,2013-01-14 02:02:00,
2013-01-13 20:07:00,45.8,28.7,30.17,NW,317,14.0,14.0,51,0.00,,CLR,0.00,VWS V14.01,2013-01-14 02:07:00,
2013-01-13 20:12:00,45.7,28.6,30.17,NNW,344,11.0,14.0,51,0.00,,CLR,0.00,VWS V14.01,2013-01-14 02:12:00,
2013-01-13 20:17:00,45.7,28.6,30.18,NNE,17,4.0,12.0,51,0.00,,CLR,0.00,VWS V14.01,2013-01-14 02:17:00,
2013-01-13 20:22:00,45.5,28.4,30.18,North,360,6.0,15.0,51,0.00,,CLR,0.00,VWS V14.01,2013-01-14 02:22:00,
2013-01-13 20:27:00,45.4,28.4,30.18,NNW,333,10.0,15.0,51,0.00,,CLR,0.00,VWS V14.01,2013-01-14 02:27:00,
2013-01-13 20:32:00,45.2,28.6,30.18,NNE,15,7.0,16.0,52,0.00,,CLR,0.00,VWS V14.01,2013-01-14 02:32:00,
2013-01-13 20:37:00,45.1,28.5,30.18,NNW,341,6.0,14.0,52,0.00,,CLR,0.00,VWS V14.01,2013-01-14 02:37:00,
2013-01-13 20:42:00,45.1,29.0,30.18,NNW,337,7.0,14.0,53,0.00,,CLR,0.00,VWS V14.01,2013-01-14 02:42:00,
2013-01-13 20:47:00,44.8,28.7,30.18,North,11,3.0,15.0,53,0.00,,CLR,0.00,VWS V14.01,2013-01-14 02:47:00,
2013-01-13 20:52:00,44.8,28.7,30.18,NNW,333,8.0,15.0,53,0.00,,CLR,0.00,VWS V14.01,2013-01-14 02:52:00,
2013-01-13 20:57:00,44.6,28.5,30.18,North,349,6.0,12.0,53,0.00,,CLR,0.00,VWS V14.01,2013-01-14 02:57:00,
2013-01-13 21:02:00,44.5,28.9,30.19,NE,53,1.0,12.0,54,0.00,,CLR,0.00,VWS V14.01,2013-01-14 03:02:00,
2013-01-13 21:07:00,44.3,28.7,30.19,NNW,328,7.0,9.0,54,0.00,,CLR,0.00,VWS V14.01,2013-01-14 03:07:00,
2013-01-13 21:12:00,44.2,28.6,30.19,North,5,4.0,10.0,54,0.00,,CLR,0.00,VWS V14.01,2013-01-14 03:12:00,
2013-01-13 21:17:00,44.1,29.0,30.20,NE,34,3.0,11.0,55,0.00,,CLR,0.00,VWS V14.01,2013-01-14 03:17:00,
2013-01-13 21:22:00,43.9,28.8,30.20,NE,37,2.0,11.0,55,0.00,,CLR,0.00,VWS V14.01,2013-01-14 03:22:00,
2013-01-13 21:27:00,43.8,28.7,30.20,NE,34,11.0,11.0,55,0.00,,CLR,0.00,VWS V14.01,2013-01-14 03:27:00,
2013-01-13 21:32:00,43.8,28.7,30.21,North,5,1.0,11.0,55,0.00,,CLR,0.00,VWS V14.01,2013-01-14 03:32:00,
2013-01-13 21:37:00,43.6,28.5,30.21,North,5,5.0,9.0,55,0.00,,CLR,0.00,VWS V14.01,2013-01-14 03:37:00,
2013-01-13 21:42:00,43.5,28.9,30.21,NE,51,2.0,9.0,56,0.00,,CLR,0.00,VWS V14.01,2013-01-14 03:42:00,
2013-01-13 21:47:00,43.3,28.7,30.22,NE,34,0.0,4.0,56,0.00,,CLR,0.00,VWS V14.01,2013-01-14 03:47:00,
2013-01-13 21:52:00,43.2,29.0,30.22,NE,34,2.0,4.0,57,0.00,,CLR,0.00,VWS V14.01,2013-01-14 03:52:00,
2013-01-13 21:57:00,43.1,28.9,30.22,NE,34,2.0,4.0,57,0.00,,CLR,0.00,VWS V14.01,2013-01-14 03:57:00,
2013-01-13 22:02:00,42.9,28.7,30.23,NNE,15,0.0,6.0,57,0.00,,CLR,0.00,VWS V14.01,2013-01-14 04:02:00,
2013-01-13 22:07:00,42.8,29.1,30.23,NNE,17,2.0,5.0,58,0.00,,CLR,0.00,VWS V14.01,2013-01-14 04:07:00,
2013-01-13 22:12:00,42.6,28.9,30.23,NNE,18,7.0,7.0,58,0.00,,CLR,0.00,VWS V14.01,2013-01-14 04:12:00,
2013-01-13 22:17:00,42.6,28.9,30.22,NE,36,2.0,10.0,58,0.00,,CLR,0.00,VWS V14.01,2013-01-14 04:17:00,
2013-01-13 22:22:00,42.5,28.8,30.22,North,349,1.0,10.0,58,0.00,,CLR,0.00,VWS V14.01,2013-01-14 04:22:00,
2013-01-13 22:27:00,42.3,29.0,30.22,NNE,22,1.0,10.0,59,0.00,,CLR,0.00,VWS V14.01,2013-01-14 04:27:00,
2013-01-13 22:32:00,42.2,28.9,30.21,ENE,74,0.0,10.0,59,0.00,,CLR,0.00,VWS V14.01,2013-01-14 04:32:00,
2013-01-13 22:37:00,42.2,28.9,30.21,NNE,17,5.0,7.0,59,0.00,,CLR,0.00,VWS V14.01,2013-01-14 04:37:00,
2013-01-13 22:42:00,42.1,28.8,30.21,NNE,12,6.0,7.0,59,0.00,,CLR,0.00,VWS V14.01,2013-01-14 04:42:00,
2013-01-13 22:47:00,41.9,28.6,30.21,North,5,5.0,11.0,59,0.00,,CLR,0.00,VWS V14.01,2013-01-14 04:47:00,
2013-01-13 22:52:00,41.9,28.6,30.21,NNE,26,8.0,11.0,59,0.00,,CLR,0.00,VWS V14.01,2013-01-14 04:52:00,
2013-01-13 22:57:00,41.8,28.5,30.21,NNW,334,8.0,12.0,59,0.00,,CLR,0.00,VWS V14.01,2013-01-14 04:57:00,
2013-01-13 23:00:00,41.8,28.5,30.21,NNE,20,3.0,12.0,59,0.00,,CLR,0.00,VWS V14.01,2013-01-14 05:00:00,
2013-01-13 23:01:00,41.8,28.5,30.21,North,355,5.0,12.0,59,0.00,,CLR,0.00,VWS V14.01,2013-01-14 05:01:00,
2013-01-13 23:03:00,41.8,28.5,30.20,North,5,5.0,5.0,59,0.00,,CLR,0.00,VWS V14.01,2013-01-14 05:03:00,
2013-01-13 23:08:00,41.6,28.4,30.20,NNE,18,5.0,11.0,59,0.00,,CLR,0.00,VWS V14.01,2013-01-14 05:08:00,
2013-01-13 23:13:00,41.5,28.3,30.20,NNE,17,9.0,13.0,59,0.00,,CLR,0.00,VWS V14.01,2013-01-14 05:13:00,
2013-01-13 23:18:00,41.3,28.1,30.18,East,79,4.0,13.0,59,0.00,,CLR,0.00,VWS V14.01,2013-01-14 05:18:00,
2013-01-13 23:23:00,41.3,28.1,30.18,North,5,3.0,5.0,59,0.00,,CLR,0.00,VWS V14.01,2013-01-14 05:23:00,
2013-01-13 23:28:00,41.2,27.6,30.18,North,355,6.0,15.0,58,0.00,,CLR,0.00,VWS V14.01,2013-01-14 05:28:00,
2013-01-13 23:33:00,41.1,27.5,30.20,NW,317,11.0,11.0,58,0.00,,CLR,0.00,VWS V14.01,2013-01-14 05:33:00,
2013-01-13 23:38:00,41.1,27.5,30.20,NNE,28,3.0,13.0,58,0.00,,CLR,0.00,VWS V14.01,2013-01-14 05:38:00,
2013-01-13 23:43:00,41.1,27.5,30.20,North,5,10.0,14.0,58,0.00,,CLR,0.00,VWS V14.01,2013-01-14 05:43:00,
2013-01-13 23:48:00,40.8,27.2,30.19,North,5,4.0,16.0,58,0.00,,CLR,0.00,VWS V14.01,2013-01-14 05:48:00,
2013-01-13 23:53:00,40.8,27.2,30.19,NNE,13,5.0,16.0,58,0.00,,CLR,0.00,VWS V14.01,2013-01-14 05:53:00,
2013-01-13 23:58:00,40.5,27.3,30.19,NNE,19,3.0,11.0,59,0.00,,CLR,0.00,VWS V14.01,2013-01-14 05:58:00,